This demonstration page uses our WeatherBlox Daily Observations layout. Learn more.

Left ArrowRight Arrow

33.49182, -80.85565

Hourly Observations for January 25, 2022

Temp ( °F °C ) Dew Point ( °F °C ) Humidity (%) Winds ( mph kmh ) Pressure ( in mb ) Visibility ( mi km ) Precip ( " mm )
12:53 am 00:53 Clear 39 3.9 34 1.1 82 82 Calm 29.95 1014 10 16 0.00 0.00
1:53 am 01:53 Clear 42 5.6 33 0.6 71 71 S 5 7 29.93 1014 10 16 0.00 0.00
2:53 am 02:53 Clear 41 5 35 1.7 79 79 SSW 7 11 29.95 1014 10 16 0.00 0.00
3:53 am 03:53 Clear 41 5 34 1.1 76 76 SSW 5 7 29.95 1014 10 16 0.00 0.00
4:53 am 04:53 Mostly Clear 42 5.6 34 1.1 73 73 SSW 3 6 29.95 1014 10 16 0.00 0.00
5:53 am 05:53 Cloudy 43 6.1 35 1.7 74 74 Calm 29.98 1015 10 16 0.00 0.00
6:53 am 06:53 Cloudy 43 6.1 35 1.7 74 74 Calm 29.97 1015 10 16 0.00 0.00
7:53 am 07:53 Cloudy 43 6.1 36 2.2 76 76 Calm 30.01 1016 10 16 0.00 0.00
8:53 am 08:53 Cloudy 45 7.2 36 2.2 71 71 Calm 30.02 1017 10 16 0.00 0.00
9:53 am 09:53 Cloudy 47 8.3 37 2.8 69 69 SW 3 6 30.04 1017 10 16 0.00 0.00
10:53 am 10:53 Cloudy 50 10 38 3.3 63 63 SSW 6 9 30.02 1017 10 16 0.00 0.00
11:53 am 11:53 Cloudy 55 12.8 38 3.3 53 53 WSW 7 11 30.02 1017 10 16 0.00 0.00
12:53 pm 12:53 Mostly Cloudy 59 15 38 3.3 46 46 SW 8 13 29.98 1015 10 16 0.00 0.00
1:53 pm 13:53 Cloudy 60 15.6 38 3.3 44 44 SW 8 13 29.97 1015 10 16 0.00 0.00
2:53 pm 14:53 Cloudy 61 16.1 37 2.8 41 41 WSW 5 7 29.97 1015 10 16 0.00 0.00
3:53 pm 15:53 Cloudy 61 16.1 38 3.3 43 43 SW 6 9 29.97 1015 10 16 0.00 0.00
4:53 pm 16:53 Cloudy 59 15 38 3.3 46 46 WSW 8 13 29.99 1016 10 16 0.00 0.00
5:53 pm 17:53 Cloudy 56 13.3 39 3.9 53 53 WSW 6 9 30.00 1016 10 16 0.00 0.00
6:53 pm 18:53 Cloudy 53 11.7 41 5 64 64 SSW 5 7 30.03 1017 10 16 0.00 0.00
7:53 pm 19:53 Partly Cloudy 51 10.6 40 4.4 66 66 Calm 30.05 1018 10 16 0.00 0.00
8:53 pm 20:53 Mostly Clear 48 8.9 40 4.4 74 74 Calm 30.05 1018 10 16 0.00 0.00
9:53 pm 21:53 Clear 45 7.2 41 5 86 86 Calm 30.07 1018 10 16 0.00 0.00
10:53 pm 22:53 Clear 43 6.1 40 4.4 89 89 Calm 30.07 1018 10 16 0.00 0.00
11:53 pm 23:53 Clear 41 5 39 3.9 93 93 Calm 30.06 1018 10 16 0.00 0.00

Powered by AerisWeather